mywfg.com alexa rank chart, mywfg.com alexa rank daily changes

mywfg.com alexa rank chart, mywfg.com alexa rank daily changes

mywfg.com
Actual rank:
56 787

RANK HISTORY

Date Rank Diff
2017/01/23 56 787 +88
2017/01/22 56 699 -73
2017/01/21 56 772 -143
2017/01/20 56 915 -715
2017/01/19 57 630 +159
2017/01/18 57 471 +724
2017/01/17 56 747 +535
2017/01/16 56 212 +32
2017/01/15 56 180 +507
2017/01/14 55 673 -260
2017/01/13 55 933 -39
2017/01/12 55 972 -770
2017/01/11 56 742 +245
2017/01/10 56 497 +58
2017/01/09 56 439 +316
2017/01/08 56 123 +807
2017/01/07 55 316 +49
2017/01/06 55 267 -1 356
2017/01/05 56 623 -337
2017/01/04 56 960 +659
2017/01/03 56 301 -293
2017/01/02 56 594 -370
2017/01/01 56 964 -37
2016/12/31 57 001 -1 263
2016/12/30 58 264 -584
2016/12/29 58 848 -1 844
2016/12/28 60 692 +554
2016/12/27 60 138 -265
2016/12/26 60 403 -556
2016/12/25 60 959 +607
2016/12/24 60 352 -304
2016/12/23 60 656 +687
2016/12/22 59 969 -430
2016/12/21 60 399 -858
2016/12/20 61 257 +552
2016/12/19 60 705 -815
2016/12/18 61 520 -293
2016/12/17 61 813 +40
2016/12/16 61 773 +107
2016/12/15 61 666 -1 018
2016/12/14 62 684 +1 708
2016/12/13 60 976 +115
2016/12/12 60 861 +733
2016/12/11 60 128 +470
2016/12/10 59 658 +564
2016/12/09 59 094 +592
2016/12/08 58 502 -1 642
2016/12/07 60 144 -173
2016/12/06 60 317 +1 324
2016/12/05 58 993 +300
2016/12/04 58 693 +83
2016/12/02 58 610 +445
2016/12/01 58 165 -957
2016/11/30 59 122 -288
2016/11/29 59 410 +1 611
2016/11/28 57 799 -376
2016/11/27 58 175 +894
2016/11/26 57 281 +1 015
2016/11/25 56 266 -670
2016/11/24 56 936

WIDGET FOR YOUR SITE

DOMAINS WITH THE NEAREST RANK

Domain Rank
alba.co.jp 56 782
xov.jp 56 783
mlife.com 56 784
a-star.edu.sg 56 785
kyliejennershop.com 56 786
mywfg.com 56 787
nextgurukul.in 56 788
medimax.de 56 789
daimg.com 56 790
state.nh.us 56 791
ovzmelkxgtgf.com 56 792

DOMAINS WITH THE NEAREST RANK BY TLD .com

Domain Rank
yawaspi.com 56 776
bpm-power.com 56 779
whats-your-sign.com 56 780
mlife.com 56 784
kyliejennershop.com 56 786
mywfg.com 56 787
daimg.com 56 790
ovzmelkxgtgf.com 56 792
listposts.com 56 794
stuartweitzman.com 56 797
zhibimo.com 56 798